Regional Weather Roundup
Issued by NWS Charleston, SC

Home | Current Version | Previous Version | Text Only | Print | Product List | Glossary On
Versions: 1 2 3 4 5 6 7 8 9 10 11 12 13 14 15 16 17 18 19 20 21 22 23 24 25 26 27 28 29 30 31 32 33 34 35 36 37 38 39 40 41 42 43 44 45 46 47 48 49 50
000
ASUS42 KCHS 291826
RWRCHS

REGIONAL WEATHER ROUNDUP
NATIONAL WEATHER SERVICE CHARLESTON SC
100 PM EST THU JAN 29 2015

NOTE: "FAIR" INDICATES FEW OR NO CLOUDS BELOW 12,000 FEET WITH NO
SIGNIFICANT WEATHER AND/OR OBSTRUCTIONS TO VISIBILITY.

NOT ALL STATIONS ARE QUALITY CONTROLLED BY THE NATIONAL
WEATHER SERVICE. USE DATA WITH CAUTION...ESPECIALLY
DEWPOINT OBSERVATIONS.

SCZ027-030-031-034>040-042>050-291900-
...SOUTHEAST SOUTH CAROLINA...

CITY           SKY/WX    TMP DP  RH WIND       PRES   REMARKS
N CHARLESTON   MOSUNNY   56  32  40 S13       30.29F
6HR MIN TEMP:  26; 6HR MAX TEMP:  56;

WATERFRONT PRK   N/A     54 N/A N/A E9          N/A
MOUNT PLEASANT FAIR      54  34  47 CALM      30.29F
PINOPOLIS        N/A     57  28  33 CALM      30.23F
MONCKS CORNER  FAIR      55  28  35 SW7       30.28F
SUMMERVILLE    FAIR      55  30  38 SW6       30.30F
BEAUFORT MCAS  PTSUNNY   56  41  57 S7        30.30F
6HR MIN TEMP:  30; 6HR MAX TEMP:  58;

BEAUFORT ARPT  FAIR      54  41  62 S6        30.29F
HILTON HEAD IS PTSUNNY   55  37  50 S6        30.31F
WALTERBORO     MOCLDY    55  21  26 S8        30.30F
ALLENDALE      FAIR      54  25  32 S8        30.27F

...SOUTHERN MIDLANDS AND PEE DEE...

CITY           SKY/WX    TMP DP  RH WIND       PRES   REMARKS
GEORGETOWN     NOT AVBL
KINGSTREE      NOT AVBL
ORANGEBURG     CLOUDY    52  22  30 S12       30.28F
6HR MIN TEMP:  27; 6HR MAX TEMP:  53;

BARNWELL       FAIR      54  27  35 S7        30.29F
AIKEN          FAIR      52  27  37 S6        30.29F
MANNING        FAIR      54  19  26 S5        30.28F
COLUMBIA       CLOUDY    52  22  30 S10       30.27F
6HR MIN TEMP:  26; 6HR MAX TEMP:  52;

SUMTER         CLOUDY    51  19  28 S9        30.27F
6HR MIN TEMP:  27; 6HR MAX TEMP:  52; 6HR PCP: TRACE;

FLORENCE       PTSUNNY   51  17  26 SW10      30.28F
6HR MIN TEMP:  25; 6HR MAX TEMP:  51;

MYRTLE BEACH   SUNNY     48  28  46 SE12      30.34F
N MYRTLE BEACH SUNNY     48  25  40 S7        30.31F
6HR MIN TEMP:  25; 6HR MAX TEMP:  48;


$$

GAZ063-065-086>088-099>101-113>116-118-119-134>141-150-291900-
...SOUTHEAST GEORGIA...

CITY           SKY/WX    TMP DP  RH WIND       PRES   REMARKS
SAVANNAH ARPT  CLOUDY    57  36  45 S8        30.30F
6HR MIN TEMP:  30; 6HR MAX TEMP:  58;

HUNTER AAF     MOSUNNY   57  40  53 SE10      30.28F
6HR MIN TEMP:  29; 6HR MAX TEMP:  58;

FORT STEWART   PTSUNNY   58  38  47 S9        30.27F
6HR MIN TEMP:  28; 6HR MAX TEMP:  58;

STATESBORO     CLOUDY    56  36  47 S8        30.28F
SYLVANIA       CLOUDY    56  35  44 SW8       30.28F
CLAXTON        FAIR      57  39  51 SW5       30.28F

...CSRA...CENTRAL AND FAR SOUTHEAST GEORGIA...

CITY           SKY/WX    TMP DP  RH WIND       PRES   REMARKS
THOMSON        PTSUNNY   55  29  36 S7        30.30F
AUGUSTA-BUSH   CLOUDY    54  22  28 S14       30.28F
6HR MIN TEMP:  24; 6HR MAX TEMP:  54;

AUGUSTA-DANIEL CLOUDY    53  23  31 S8        30.27F
SWAINSBORO     FAIR      55   7  14 S7        30.28F
VIDALIA        CLOUDY    55  34  44 SW7       30.28F
EASTMAN        FAIR      57  31  37 S8        30.30F
HAZLEHURST     FAIR      58  35  42 SW5       30.26F
ALMA           PTSUNNY   58  35  42 S9        30.29F
6HR MIN TEMP:  29; 6HR MAX TEMP:  58;

WAYCROSS       PTSUNNY   64  43  45 S8        30.28F
JESUP          FAIR      63  43  48 SW6       30.27F
BAXLEY         FAIR      59  37  44 SW8       30.26F
BRUNSWICK      MOSUNNY   61  43  51 S7        30.30F
SAINT SIMONS   MOSUNNY   58  41  53 E6        30.31F
6HR MIN TEMP:  35; 6HR MAX TEMP:  58;


$$

SCZ027-028-034-036>038-045-046-048>050-GAZ119-141-291900-
...LAKE AND SUPPLEMENTAL COASTAL OBSERVATIONS...

STATION/POSITION TIME  TEMP    WIND        PRES    WAVE   SWELL
                       AIR SEA DIR/SP/G            HT/PER HT/PER/DIR
                 (UTC) (F)     (DEG/KT/KT) (MB)    (FT/S) (FT/S/D)
UPR LAKE MARION  NOT AVBL
WINYAH BAY       1700   49     130/  4     1026.0F
LAKE MURRAY      1800   50     190/  6/  8 1024.0F
ACE BASIN NERRS  1745   53     170/  2     1026.0F
FORT PULASKI     1800   50 52   70/  6/  7 1026.4F
SAPELO ISLAND    1700   59     150/  3     1028.0S

$$

ANZ835-935-AMZ111-154-330-350-352-354-370-450-454-472-291900-
...C-MAN AND BUOY OBSERVATIONS...

STATION/POSITION TIME  TEMP    WIND        PRES    WAVE   SWELL
                       AIR SEA DIR/SP/G            HT/PER HT/PER/DIR
                 (UTC) (F)     (DEG/KT/KT) (MB)    (FT/S) (FT/S/D)
BUOY 41004       1750   55 68  170/  4/  8 1026.1F   3/11   3/11
BUOY 41008       1750   53 54   10/  8/  8 1026.5F   3/ 7   3/100/ 7
FOLLY BEACH CMAN 1800   49     110/  3/  3 1026.7F
CAPERS NEARSHORE 1700   51      90/  4/  6   N/A
FRIPP NEARSHORE  1700   50      40/  6/  8 1027.0F


STATION/POSITION TIME  TEMP    WIND        PRES    WAVE   SWELL
                       AIR SEA DIR/SP/G            HT/PER HT/PER/DIR
                 (UTC) (F)     (DEG/KT/KT) (MB)    (FT/S) (FT/S/D)
5E ST. MARYS GA  NOT AVBL
FRYING PAN BUOY  1750   50 67  110/  2/  2 1026.8F   3/11   3/110/11
BUOY 41025       1750   40 72  340/  8/ 10 1025.1F   5/ 9   5/ 30/ 9
CAPE LOOKOUT NC  1800   42      CALM  /  2 1025.7F
BUOY 41002       1750   57 72  330/ 12/ 16 1025.5F   7/ 8   7/ 20/ 8
BUOY 41010       1720   64 75   80/ 10/ 14 1025.6F
ST AUGUSTINE FL  1800   56     360/ 10/ 11 1026.4F


$$


USA.gov is the U.S. government's official web portal to all federal, state and local government web resources and services.